Regional Weather Roundup
Issued by NWS Mt. Holly, NJ

Home | Current Version | Previous Version | Text Only | Print | Product List | Glossary On
Versions: 1 2 3 4 5 6 7 8 9 10 11 12 13 14 15 16 17 18 19 20 21 22 23 24 25 26 27 28 29 30 31 32 33 34 35 36 37 38 39 40 41 42 43 44 45 46 47 48 49 50
000
ASUS41 KPHI 171710
RWRPHI

REGIONAL WEATHER ROUNDUP
NATIONAL WEATHER SERVICE MOUNT HOLLY NJ
100 PM EDT WED SEP 17 2014

NOTE:  "FAIR" INDICATES FEW OR NO CLOUDS BELOW 12,000 FEET WITH NO
SIGNIFICANT WEATHER AND/OR OBSTRUCTIONS TO VISIBILITY.

 * = STATION DOES NOT REPORT PRECIPITATION (E.G. RAIN, SNOW, ETC.)
        OR FOG.

NJZ015>026-171800-
SOUTHERN NEW JERSEY

CITY           SKY/WX    TMP DP  RH WIND       PRES   REMARKS
POMONA         PTSUNNY   72  47  40 CALM      30.02F
RIO GRANDE*    MOSUNNY   72  43  35 E7        30.04S
MILLVILLE      PTSUNNY   73  45  36 VRB7      30.02F
WRIGHTSTOWN    MOSUNNY   70  48  45 VRB5      30.00F
MOUNT HOLLY    MOSUNNY   70  47  43 CALM      30.02F
TRENTON        PTSUNNY   68  44  42 NW8       30.02F

$$
NJZ001>014-171800-
NORTHERN NEW JERSEY

CITY           SKY/WX    TMP DP  RH WIND       PRES   REMARKS
SUSSEX         SUNNY     69  43  38 VRB3      30.03F
ANDOVER*         N/A     66  42  41 CALM      30.04F
NEWARK         MOSUNNY   72  42  34 VRB6      30.02F
TETERBORO      SUNNY     70  41  34 VRB5      30.01F
CALDWELL       MOSUNNY   69  41  36 CALM      30.03F
SOMERVILLE     MOSUNNY   71  44  37 VRB6      30.01F
ALLAIRE*       MOSUNNY   70  46  43 W7        30.02F
TOMS RIVER*    MOSUNNY   70  46  43 CALM      30.02F

$$
PAZ043-044-047-054-055-060>062-066>071-171800-
EASTERN PENNSYLVANIA

CITY           SKY/WX    TMP DP  RH WIND       PRES   REMARKS
PHILADELPHIA   MOSUNNY   72  48  42 SE5       30.03F
NORTH PHILA    MOSUNNY   72  43  35 VRB5      30.04F
BLUE BELL      MOSUNNY   72  48  43 NW7       30.03F
DOYLESTOWN     CLOUDY    71  46  40 NW8       30.03F
QUAKERTOWN*    PTSUNNY   66  46  48 NW5       30.04F
POTTSTOWN      SUNNY     68  46  45 SW3       30.05F
LANCASTER      MOSUNNY   70  46  42 W8        30.03F
READING        PTSUNNY   71  47  42 VRB5      30.02F
ALLENTOWN      MOSUNNY   70  45  40 CALM      30.03F
MOUNT POCONO   PTSUNNY   63  39  41 VRB3      30.04F
WILKES BARRE   MOSUNNY   65  42  43 NW5       30.04F

$$
DEZALL-MDZ008-012-015-019-020-171800-
DELAWARE AND EASTERN MARYLAND

CITY           SKY/WX    TMP DP  RH WIND       PRES   REMARKS
WILMINGTON     MOSUNNY   71  48  43 W5        30.04F
DOVER          CLOUDY    71  47  43 NE5       30.01F
GEORGETOWN     PTSUNNY   75  44  33 E10G17    30.04S
EASTON         MOSUNNY   73  48  40 E7        30.06F
PATUXENT       MOSUNNY   72  52  49 E9        30.02F
OCEAN CITY     SUNNY     73  51  46 E10       30.02F
WALLOPS ISLAND MOSUNNY   74  57  55 E12       30.02F
CAMBRIDGE      MOSUNNY   73  46  38 W3        30.02F
SALISBURY      MOSUNNY   76  48  37 N8        30.02F

$$
PAZ001-021-NYZ056-072-MDZ011-DCZ001-171800-
OTHER NEARBY LOCATIONS

CITY           SKY/WX    TMP DP  RH WIND       PRES   REMARKS
HARRISBURG     PTSUNNY   72  44  36 CALM      30.02F
STATE COLLEGE  PTSUNNY   63  46  55 S6        30.04F
WILLIAMSPORT   MOSUNNY   65  45  48 CALM      30.02F
BINGHAMTON     PTSUNNY   61  44  53 W7        30.03F
NEW YORK CITY  SUNNY     70  40  33 W7        30.05F
BALTIMORE      MOSUNNY   73  49  42 VRB7      30.03F
WASHINGTON DC  PTSUNNY   74  48  39 CALM      30.03F

$$


USA.gov is the U.S. government's official web portal to all federal, state and local government web resources and services.